When you browse on this site, cookies collect data to enhance your experience and personalize the content and advertising you see.
Visit our Privacy Policy to learn more. By continuing to use the site, you agree to this use of cookies and data.

Hourly Weather Kalyal

Today, 3 July, Friday

Time Temperature Precipitation Wind Pressure Humidity
00:00 +9°C° 0 mm 1 mps 601 mmHg 83%
01:00 +10°C° 0 mm 1 mps 601 mmHg 84%
02:00 +10°C° 0 mm 1 mps 601 mmHg 85%
03:00 +10°C° 0 mm 1 mps 601 mmHg 86%
04:00 +11°C° 0 mm 1 mps 601 mmHg 84%
05:00 +13°C° 0 mm 1 mps 602 mmHg 82%
06:00 +14°C° 0 mm 1 mps 603 mmHg 79%
07:00 +15°C° 0 mm 1 mps 603 mmHg 75%
08:00 +16°C° 0 mm 2 mps 603 mmHg 70%
09:00 +17°C° 0 mm 2 mps 604 mmHg 63%
10:00 +18°C° 0.1 mm 2 mps 604 mmHg 63%
11:00 +18°C° 0.1 mm 2 mps 604 mmHg 63%
12:00 +19°C° 0.1 mm 3 mps 604 mmHg 62%
13:00 +19°C° 0.3 mm 2 mps 604 mmHg 63%
14:00 +19°C° 0.3 mm 2 mps 604 mmHg 63%
15:00 +19°C° 0.3 mm 2 mps 603 mmHg 63%
16:00 +18°C° 0.2 mm 2 mps 603 mmHg 65%
17:00 +18°C° 0.2 mm 2 mps 603 mmHg 67%
18:00 +19°C° 0.2 mm 1 mps 603 mmHg 68%
19:00 +16°C° 0 mm 1 mps 603 mmHg 72%
20:00 +15°C° 0 mm 1 mps 602 mmHg 75%
21:00 +13°C° 0 mm 1 mps 602 mmHg 78%
22:00 +13°C° 0 mm 1 mps 602 mmHg 79%
23:00 +12°C° 0 mm 1 mps 601 mmHg 81%

Tomorrow, 4 July, Saturday

Time Temperature Precipitation Wind Pressure Humidity
00:00 +11°C° 0 mm 1 mps 601 mmHg 83%
01:00 +11°C° 0 mm 1 mps 601 mmHg 83%
02:00 +10°C° 0 mm 1 mps 601 mmHg 83%
03:00 +10°C° 0 mm 1 mps 600 mmHg 83%
04:00 +11°C° 0 mm 1 mps 601 mmHg 80%
05:00 +13°C° 0 mm 1 mps 602 mmHg 78%
06:00 +14°C° 0 mm 1 mps 603 mmHg 76%
07:00 +16°C° 0 mm 1 mps 603 mmHg 70%
08:00 +18°C° 0 mm 1 mps 604 mmHg 65%
09:00 +18°C° 0 mm 2 mps 604 mmHg 59%
10:00 +19°C° 0.2 mm 2 mps 604 mmHg 58%
11:00 +20°C° 0.2 mm 2 mps 604 mmHg 57%
12:00 +20°C° 0.2 mm 3 mps 604 mmHg 56%
13:00 +20°C° 0.5 mm 3 mps 604 mmHg 55%
14:00 +21°C° 0.5 mm 2 mps 604 mmHg 54%
15:00 +21°C° 0.5 mm 2 mps 603 mmHg 54%
16:00 +20°C° 0.2 mm 2 mps 603 mmHg 54%
17:00 +20°C° 0.2 mm 2 mps 603 mmHg 55%
18:00 +19°C° 0.2 mm 2 mps 603 mmHg 56%
19:00 +17°C° 0 mm 2 mps 602 mmHg 61%
20:00 +15°C° 0 mm 1 mps 601 mmHg 65%
21:00 +12°C° 0 mm 1 mps 600 mmHg 70%
22:00 +12°C° 0 mm 1 mps 600 mmHg 70%
23:00 +12°C° 0 mm 1 mps 600 mmHg 70%

Day after tomorrow, 5 July, Sunday

Time Temperature Precipitation Wind Pressure Humidity
00:00 +12°C° 0 mm 1 mps 600 mmHg 70%
01:00 +11°C° 0 mm 1 mps 599 mmHg 70%
02:00 +11°C° 0 mm 1 mps 599 mmHg 71%
03:00 +11°C° 0 mm 1 mps 599 mmHg 71%
04:00 +12°C° 0 mm 1 mps 600 mmHg 68%
05:00 +13°C° 0 mm 0 mps 601 mmHg 65%
06:00 +14°C° 0 mm 0 mps 601 mmHg 62%
07:00 +16°C° 0 mm 1 mps 602 mmHg 59%
08:00 +19°C° 0 mm 1 mps 602 mmHg 56%
09:00 +19°C° 0 mm 2 mps 602 mmHg 53%
10:00 +19°C° 0.1 mm 2 mps 602 mmHg 52%
11:00 +20°C° 0.1 mm 2 mps 602 mmHg 51%
12:00 +20°C° 0.1 mm 3 mps 602 mmHg 50%
13:00 +20°C° 0.2 mm 2 mps 602 mmHg 50%
14:00 +20°C° 0.2 mm 2 mps 602 mmHg 49%
15:00 +21°C° 0.2 mm 2 mps 602 mmHg 48%
16:00 +20°C° 0 mm 2 mps 601 mmHg 50%
17:00 +20°C° 0 mm 2 mps 601 mmHg 51%
18:00 +19°C° 0 mm 2 mps 601 mmHg 52%
19:00 +17°C° 0 mm 2 mps 600 mmHg 55%
20:00 +15°C° 0 mm 1 mps 600 mmHg 59%
21:00 +13°C° 0 mm 1 mps 599 mmHg 62%
22:00 +12°C° 0 mm 1 mps 599 mmHg 62%
23:00 +12°C° 0 mm 1 mps 598 mmHg 63%

6 July, Monday

Time Temperature Precipitation Wind Pressure Humidity
00:00 +12°C° 0 mm 1 mps 598 mmHg 63%
01:00 +11°C° 0 mm 1 mps 598 mmHg 64%
02:00 +11°C° 0 mm 1 mps 598 mmHg 64%
03:00 +11°C° 0 mm 1 mps 598 mmHg 65%
04:00 +12°C° 0 mm 1 mps 599 mmHg 62%
05:00 +14°C° 0 mm 1 mps 600 mmHg 59%
06:00 +16°C° 0 mm 1 mps 600 mmHg 57%
07:00 +18°C° 0 mm 1 mps 601 mmHg 52%
08:00 +19°C° 0 mm 1 mps 602 mmHg 46%
09:00 +20°C° 0 mm 2 mps 602 mmHg 41%
10:00 +20°C° 0 mm 2 mps 602 mmHg 41%
11:00 +21°C° 0 mm 2 mps 602 mmHg 41%
12:00 +22°C° 0 mm 3 mps 602 mmHg 41%
13:00 +23°C° 0.2 mm 2 mps 602 mmHg 44%
14:00 +21°C° 0.2 mm 2 mps 602 mmHg 46%
15:00 +21°C° 0.2 mm 2 mps 601 mmHg 49%
16:00 +21°C° 0 mm 2 mps 601 mmHg 49%
17:00 +21°C° 0 mm 1 mps 601 mmHg 49%
18:00 +21°C° 0 mm 1 mps 601 mmHg 49%
19:00 +19°C° 0 mm 1 mps 600 mmHg 54%
20:00 +15°C° 0 mm 1 mps 599 mmHg 59%
21:00 +13°C° 0 mm 1 mps 599 mmHg 64%
22:00 +13°C° 0 mm 1 mps 598 mmHg 64%
23:00 +12°C° 0 mm 1 mps 598 mmHg 65%

7 July, Tuesday

Time Temperature Precipitation Wind Pressure Humidity
00:00 +12°C° 0 mm 1 mps 598 mmHg 65%
01:00 +12°C° 0 mm 1 mps 598 mmHg 65%
02:00 +12°C° 0 mm 1 mps 598 mmHg 65%
03:00 +12°C° 0 mm 2 mps 598 mmHg 65%
04:00 +13°C° 0 mm 2 mps 598 mmHg 63%
05:00 +15°C° 0 mm 1 mps 599 mmHg 60%
06:00 +16°C° 0 mm 1 mps 600 mmHg 58%
07:00 +17°C° 0 mm 2 mps 600 mmHg 52%
08:00 +19°C° 0 mm 2 mps 601 mmHg 47%
09:00 +20°C° 0 mm 2 mps 602 mmHg 42%
10:00 +21°C° 0 mm 2 mps 602 mmHg 41%
11:00 +23°C° 0 mm 2 mps 602 mmHg 40%
12:00 +24°C° 0 mm 3 mps 602 mmHg 39%
13:00 +24°C° 0 mm 3 mps 602 mmHg 39%
14:00 +24°C° 0 mm 3 mps 601 mmHg 38%
15:00 +24°C° 0 mm 2 mps 601 mmHg 38%
16:00 +23°C° 0 mm 2 mps 601 mmHg 40%
17:00 +23°C° 0 mm 2 mps 601 mmHg 43%
18:00 +21°C° 0 mm 2 mps 600 mmHg 45%
19:00 +19°C° 0 mm 2 mps 600 mmHg 48%
20:00 +18°C° 0 mm 1 mps 599 mmHg 52%
21:00 +15°C° 0 mm 1 mps 599 mmHg 55%
22:00 +14°C° 0 mm 1 mps 598 mmHg 57%
23:00 +14°C° 0 mm 1 mps 598 mmHg 58%

8 July, Wednesday

Time Temperature Precipitation Wind Pressure Humidity
00:00 +13°C° 0 mm 1 mps 598 mmHg 60%
01:00 +13°C° 0 mm 1 mps 598 mmHg 60%
02:00 +13°C° 0 mm 1 mps 598 mmHg 59%
03:00 +13°C° 0 mm 2 mps 598 mmHg 59%
04:00 +14°C° 0 mm 1 mps 598 mmHg 58%
05:00 +16°C° 0 mm 1 mps 599 mmHg 56%
06:00 +18°C° 0 mm 1 mps 600 mmHg 55%
07:00 +20°C° 0 mm 1 mps 600 mmHg 50%
08:00 +20°C° 0 mm 2 mps 601 mmHg 45%
09:00 +23°C° 0 mm 2 mps 601 mmHg 40%
10:00 +23°C° 0.1 mm 2 mps 601 mmHg 40%
11:00 +24°C° 0.1 mm 2 mps 601 mmHg 40%
12:00 +24°C° 0.1 mm 2 mps 601 mmHg 40%
13:00 +25°C° 0.2 mm 2 mps 601 mmHg 40%
14:00 +25°C° 0.2 mm 2 mps 601 mmHg 41%
15:00 +25°C° 0.2 mm 2 mps 601 mmHg 41%
16:00 +24°C° 0.1 mm 2 mps 600 mmHg 43%
17:00 +24°C° 0.1 mm 2 mps 600 mmHg 45%
18:00 +23°C° 0.1 mm 1 mps 600 mmHg 47%
19:00 +21°C° 0 mm 1 mps 599 mmHg 52%
20:00 +18°C° 0 mm 1 mps 598 mmHg 57%
21:00 +15°C° 0 mm 1 mps 598 mmHg 62%
22:00 +15°C° 0 mm 1 mps 597 mmHg 61%
23:00 +15°C° 0 mm 1 mps 597 mmHg 60%
Show more